1508716800.13,11451,11.38,73002.0,-1.89,-2.55,-2.55,0,*50
1508716801.37,11452,11.44,73002.0,-1.89,-2.55,-2.55,0,*53
1508716802.62,11453,11.38,73002.0,-1.89,-2.55,-2.51,0,*56
1508716803.88,11454,11.38,73000.5,-1.89,-2.63,-2.51,0,*54
1508716805.15,11455,11.38,72998.3,-1.91,-2.67,-2.55,0,*5C
1508716806.42,11456,11.38,73002.0,-1.91,-2.59,-2.55,0,*52
1508716807.66,11457,11.38,73000.8,-1.89,-2.55,-2.55,0,*56
1508716808.91,11458,11.38,73002.8,-1.89,-2.55,-2.55,0,*59
1508716810.16,11459,11.44,73002.3,-1.89,-2.55,-2.63,0,*5D
1508716811.43,11460,11.44,73002.3,-1.87,-2.51,-2.51,0,*5C
1508716812.68,11461,11.38,73000.5,-1.89,-2.55,-2.51,0,*57
1508716813.93,11462,11.38,73002.5,-1.89,-2.55,-2.55,0,*50
1508716815.18,11463,11.38,73002.8,-1.89,-2.55,-2.51,0,*55
1508716816.42,11464,11.38,73002.5,-1.89,-2.55,-2.55,0,*56
1508716817.68,11465,11.38,73000.3,-1.89,-2.55,-2.51,0,*53
1508716818.92,11466,11.44,73000.3,-1.89,-2.55,-2.51,0,*50
1508716820.17,11467,11.38,73002.5,-1.89,-2.55,-2.55,0,*55
1508716821.42,11468,11.44,73002.3,-1.89,-2.51,-2.55,0,*5E
1508716822.67,11469,11.38,72998.8,-1.89,-2.51,-2.51,0,*5B
1508716823.92,11470,11.38,73002.3,-1.89,-2.55,-2.51,0,*57
1508716825.17,11471,11.38,73002.0,-1.89,-2.55,-2.51,0,*56
1508716826.41,11472,11.44,73004.3,-1.89,-2.55,-2.55,0,*51
1508716827.66,11473,11.44,73000.5,-1.89,-2.55,-2.51,0,*54
1508716828.91,11474,11.38,73000.3,-1.89,-2.51,-2.51,0,*57
1508716830.16,11475,11.44,73002.5,-1.89,-2.55,-2.55,0,*56
1508716831.43,11476,11.38,73002.8,-1.91,-2.59,-2.55,0,*50
1508716832.7,11477,11.38,73000.0,-1.91,-2.55,-2.55,0,*5D
1508716833.97,11478,11.44,73000.3,-1.91,-2.59,-2.59,0,*52
1508716835.25,11479,11.38,73000.0,-1.91,-2.55,-2.55,0,*53
1508716836.52,11480,11.38,73002.8,-1.91,-2.55,-2.55,0,*55
1508716837.79,11481,11.38,73000.0,-1.91,-2.59,-2.55,0,*58
1508716839.04,11482,11.38,73000.8,-1.89,-2.51,-2.55,0,*5A
1508716840.29,11483,11.38,73002.3,-1.89,-2.63,-2.51,0,*5E
1508716841.56,11484,11.38,73002.3,-1.91,-2.59,-2.59,0,*51
1508716842.82,11485,11.38,73002.8,-1.91,-2.59,-2.59,0,*50
1508716844.09,11486,11.44,73002.0,-1.91,-2.55,-2.59,0,*5F
1508716845.36,11487,11.38,73000.0,-1.91,-2.59,-2.59,0,*52
1508716846.63,11488,11.38,72998.5,-1.91,-2.59,-2.59,0,*5D
1508716847.9,11489,11.38,73000.5,-1.91,-2.67,-2.67,0,*5C
1508716849.17,11490,11.38,73002.0,-1.91,-2.59,-2.55,0,*58
1508716850.42,11491,11.44,73002.5,-1.89,-2.55,-2.51,0,*58
1508716851.67,11492,11.38,73002.0,-1.89,-2.63,-2.55,0,*5A
1508716852.92,11493,11.38,72998.5,-1.89,-2.63,-2.51,0,*5F
1508716854.17,11494,11.44,73002.0,-1.89,-2.63,-2.55,0,*5C
1508716855.44,11495,11.38,73000.3,-1.91,-2.71,-2.59,0,*5B
1508716856.71,11496,11.38,73000.5,-1.91,-2.67,-2.59,0,*5F
1508716857.99,11497,11.38,73002.3,-1.91,-2.71,-2.55,0,*55
1508716859.26,11498,11.38,73002.5,-1.91,-2.67,-2.55,0,*5D
1508716860.53,11499,11.38,73000.3,-1.91,-2.67,-2.59,0,*50
1508716861.79,11500,11.38,73000.0,-1.91,-2.59,-2.59,0,*5C
1508716863.06,11501,11.38,73000.8,-1.91,-2.59,-2.59,0,*5D
1508716864.33,11502,11.38,73002.8,-1.91,-2.71,-2.59,0,*54
1508716865.57,11503,11.44,73000.3,-1.93,-2.71,-2.59,0,*57
1508716866.84,11504,11.38,73000.0,-1.91,-2.55,-2.59,0,*54
1508716868.12,11505,11.38,73002.0,-1.87,-2.51,-2.51,0,*5E
1508716869.37,11506,11.38,73000.0,-1.89,-2.63,-2.63,0,*53
1508716870.62,11507,11.38,73000.3,-1.89,-2.63,-2.55,0,*57
1508716871.87,11508,11.38,73000.3,-1.89,-2.63,-2.55,0,*58
1508716873.12,11509,11.38,73000.8,-1.89,-2.63,-2.55,0,*59
1508716874.39,11510,11.38,73002.8,-1.91,-2.71,-2.55,0,*5B
1508716875.66,11511,11.38,73002.0,-1.91,-2.67,-2.59,0,*51
1508716876.93,11512,11.38,73000.3,-1.91,-2.67,-2.59,0,*52
1508716878.2,11513,11.38,72998.5,-1.91,-2.71,-2.59,0,*54
1508716879.47,11514,11.38,73002.3,-1.91,-2.67,-2.59,0,*54
1508716880.72,11515,11.38,73002.0,-1.89,-2.55,-2.51,0,*55
1508716881.97,11516,11.38,73002.8,-1.89,-2.63,-2.55,0,*57
1508716883.24,11517,11.44,73002.8,-1.91,-2.71,-2.59,0,*50
1508716884.51,11518,11.38,72996.5,-1.91,-2.67,-2.55,0,*54
1508716885.78,11519,11.38,72998.0,-1.91,-2.67,-2.59,0,*59
1508716887.05,11520,11.38,72998.5,-1.91,-2.67,-2.59,0,*53
1508716888.31,11521,11.38,73002.0,-1.91,-2.59,-2.59,0,*5F
1508716889.59,11522,11.38,73000.5,-1.91,-2.67,-2.55,0,*5D
1508716890.85,11523,11.38,72998.3,-1.91,-2.67,-2.59,0,*50
1508716892.12,11524,11.38,72998.3,-1.91,-2.59,-2.59,0,*5A
1508716893.39,11525,11.38,72996.8,-1.91,-2.59,-2.55,0,*57
1508716894.66,11526,11.38,72996.0,-1.91,-2.59,-2.59,0,*58
1508716895.93,11527,11.38,73000.5,-1.91,-2.67,-2.55,0,*58
1508716897.2,11528,11.38,72998.8,-1.91,-2.59,-2.55,0,*5A
1508716898.44,11529,11.38,73000.0,-1.93,-2.59,-2.59,0,*55
1508716899.68,11530,11.38,72996.3,-1.93,-2.67,-2.59,0,*50
1508716900.95,11531,11.38,73000.8,-1.91,-2.59,-2.59,0,*5E
1508716902.22,11532,11.38,73002.0,-1.91,-2.59,-2.55,0,*51
1508716903.49,11533,11.38,72998.5,-1.91,-2.59,-2.55,0,*50
1508716904.75,11534,11.38,72998.0,-1.91,-2.59,-2.59,0,*5B
1508716906.03,11535,11.38,72998.3,-1.91,-2.55,-2.55,0,*5A
1508716907.28,11536,11.44,73002.5,-1.89,-2.55,-2.51,0,*54
1508716908.55,11537,11.38,73000.5,-1.91,-2.55,-2.55,0,*58
1508716909.82,11538,11.38,73000.0,-1.91,-2.59,-2.55,0,*5B
1508716911.09,11539,11.38,73002.3,-1.91,-2.55,-2.59,0,*5A
1508716912.36,11540,11.38,72996.0,-1.91,-2.59,-2.55,0,*54
1508716913.61,11541,11.38,72998.8,-1.89,-2.51,-2.51,0,*50
1508716914.86,11542,11.38,73000.0,-1.89,-2.55,-2.51,0,*57
1508716916.13,11543,11.38,73000.8,-1.91,-2.59,-2.55,0,*57
1508716917.4,11544,11.38,73002.3,-1.91,-2.59,-2.55,0,*50
1508716918.67,11545,11.38,72996.5,-1.91,-2.59,-2.55,0,*51
1508716919.95,11546,11.38,72996.3,-1.91,-2.55,-2.55,0,*5E
1508716921.21,11547,11.38,72998.0,-1.91,-2.59,-2.59,0,*5F
1508716922.48,11548,11.44,73002.8,-1.91,-2.67,-2.59,0,*5D
1508716923.75,11549,11.44,73002.0,-1.91,-2.59,-2.59,0,*51
1508716925.02,11550,11.38,72998.5,-1.91,-2.59,-2.55,0,*55
1508716926.29,11551,11.38,72998.8,-1.91,-2.55,-2.59,0,*54
1508716927.56,11552,11.38,73002.0,-1.91,-2.59,-2.59,0,*5B
1508716928.83,11553,11.38,72998.8,-1.91,-2.59,-2.55,0,*56
1508716930.1,11554,11.38,72998.0,-1.91,-2.67,-2.59,0,*50
1508716931.36,11555,11.38,72996.8,-1.91,-2.59,-2.59,0,*5C
1508716932.63,11556,11.38,72998.8,-1.91,-2.59,-2.59,0,*5F
1508716933.9,11557,11.44,73002.5,-1.91,-2.55,-2.59,0,*52
1508716935.17,11558,11.38,73000.3,-1.91,-2.59,-2.59,0,*51
1508716936.44,11559,11.38,73000.0,-1.91,-2.59,-2.55,0,*5C
1508716937.71,11560,11.38,72998.3,-1.91,-2.55,-2.55,0,*5A
1508716938.98,11561,11.38,72996.0,-1.91,-2.59,-2.55,0,*57
1508716940.25,11562,11.38,72996.8,-1.91,-2.59,-2.55,0,*54
1508716941.52,11563,11.38,72998.8,-1.91,-2.59,-2.55,0,*55
1508716942.79,11564,11.38,73000.0,-1.91,-2.59,-2.55,0,*52
1508716944.03,11565,11.38,72998.3,-1.93,-2.59,-2.55,0,*51
1508716945.3,11566,11.38,72998.3,-1.91,-2.55,-2.59,0,*50
1508716946.58,11567,11.38,73000.3,-1.91,-2.59,-2.55,0,*51
1508716947.85,11568,11.38,73000.0,-1.91,-2.67,-2.55,0,*53
1508716949.11,11569,11.38,72998.3,-1.91,-2.59,-2.59,0,*53
1508716950.39,11570,11.38,73000.3,-1.91,-2.55,-2.55,0,*5B
1508716951.66,11571,11.38,73000.3,-1.91,-2.59,-2.55,0,*56
1508716952.9,11572,11.38,72998.5,-1.93,-2.59,-2.55,0,*57
1508716954.17,11573,11.38,72998.3,-1.91,-2.59,-2.55,0,*54
1508716955.44,11574,11.38,72996.8,-1.91,-2.55,-2.55,0,*5F
1508716956.71,11575,11.38,72996.8,-1.91,-2.59,-2.55,0,*52
1508716957.99,11576,11.38,72998.8,-1.91,-2.59,-2.55,0,*51
1508716959.26,11577,11.38,73000.3,-1.91,-2.59,-2.55,0,*50
1508716960.53,11578,11.38,72998.5,-1.91,-2.55,-2.55,0,*53
1508716961.8,11579,11.38,72996.5,-1.91,-2.59,-2.55,0,*5E
1508716963.07,11580,11.38,73000.0,-1.91,-2.59,-2.59,0,*54
1508716964.33,11581,11.38,72994.3,-1.91,-2.59,-2.59,0,*55
1508716965.58,11582,11.38,72996.0,-1.89,-2.55,-2.51,0,*5B
1508716966.85,11583,11.38,72994.8,-1.91,-2.59,-2.59,0,*57
1508716968.12,11584,11.38,72998.0,-1.91,-2.59,-2.59,0,*50
1508716969.38,11585,11.38,72998.3,-1.91,-2.59,-2.59,0,*51
1508716970.66,11586,11.38,73000.8,-1.91,-2.67,-2.55,0,*53
1508716971.93,11587,11.38,72998.5,-1.91,-2.55,-2.55,0,*53
1508716973.2,11588,11.38,72998.5,-1.91,-2.59,-2.55,0,*50
1508716974.44,11589,11.38,72998.0,-1.93,-2.59,-2.55,0,*53
1508716975.71,11590,11.38,72996.8,-1.91,-2.59,-2.59,0,*55
1508716976.98,11591,11.38,72994.8,-1.91,-2.59,-2.55,0,*58
1508716978.25,11592,11.38,73002.3,-1.91,-2.59,-2.55,0,*5B
1508716979.52,11593,11.38,72998.8,-1.91,-2.59,-2.59,0,*56
1508716980.79,11594,11.38,73000.0,-1.91,-2.71,-2.55,0,*57
1508716982.06,11595,11.38,72996.0,-1.91,-2.59,-2.59,0,*50
1508716983.33,11596,11.38,72998.3,-1.91,-2.59,-2.59,0,*53
1508716984.59,11597,11.38,72996.5,-1.91,-2.59,-2.59,0,*52
1508716985.86,11598,11.38,72996.0,-1.91,-2.59,-2.55,0,*51
1508716987.14,11599,11.38,72998.3,-1.91,-2.67,-2.55,0,*5D
1508716988.41,11600,11.38,73000.3,-1.91,-2.67,-2.55,0,*5E
1508716989.67,11601,11.38,72998.8,-1.91,-2.59,-2.59,0,*5E
1508716990.94,11602,11.38,72996.0,-1.91,-2.59,-2.59,0,*5D
1508716992.18,11603,11.38,72998.5,-1.93,-2.59,-2.55,0,*52
1508716993.45,11604,11.38,72998.5,-1.91,-2.59,-2.55,0,*57
1508716994.72,11605,11.38,72998.8,-1.91,-2.59,-2.59,0,*5A
1508716995.99,11606,11.38,72998.8,-1.91,-2.59,-2.59,0,*59
1508716997.25,11607,11.38,72996.5,-1.91,-2.59,-2.59,0,*58
1508716998.53,11608,11.38,72996.8,-1.91,-2.55,-2.59,0,*5B
1508716999.8,11609,11.38,72998.5,-1.91,-2.55,-2.59,0,*5A
1508717001.06,11610,11.38,72996.5,-1.91,-2.59,-2.59,0,*5E
1508717002.33,11611,11.38,72998.0,-1.91,-2.59,-2.59,0,*5F
1508717003.6,11612,11.38,72994.0,-1.91,-2.67,-2.59,0,*51
1508717004.84,11613,11.38,72998.5,-1.93,-2.67,-2.55,0,*5E
1508717006.11,11614,11.38,72992.3,-1.91,-2.67,-2.59,0,*57
1508717007.38,11615,11.38,72998.5,-1.91,-2.59,-2.59,0,*5B
1508717008.64,11616,11.38,72992.5,-1.91,-2.67,-2.59,0,*55
1508717009.91,11617,11.38,72992.0,-1.91,-2.59,-2.59,0,*59
1508717011.15,11618,11.38,72994.3,-1.93,-2.59,-2.59,0,*54
1508717012.42,11619,11.38,72996.0,-1.91,-2.67,-2.59,0,*5A
1508717013.69,11620,11.38,72992.3,-1.91,-2.59,-2.59,0,*5D
1508717014.96,11621,11.38,72996.3,-1.91,-2.55,-2.59,0,*50
1508717016.2,11622,11.38,72996.0,-1.93,-2.71,-2.55,0,*5B
1508717017.47,11623,11.38,72996.3,-1.91,-2.59,-2.55,0,*52
1508717018.74,11624,11.38,72996.8,-1.91,-2.55,-2.59,0,*55
1508717020.02,11625,11.38,72994.5,-1.91,-2.67,-2.55,0,*59
1508717021.26,11626,11.38,72998.0,-1.93,-2.67,-2.59,0,*54
1508717022.53,11627,11.38,72998.3,-1.91,-2.59,-2.55,0,*56
1508717023.77,11628,11.38,72996.3,-1.93,-2.59,-2.59,0,*57
1508717025.03,11629,11.38,72998.0,-1.91,-2.59,-2.59,0,*54
1508717026.27,11630,11.38,72998.0,-1.93,-2.67,-2.59,0,*53
1508717027.52,11631,11.38,72994.5,-1.93,-2.67,-2.59,0,*52
1508717028.78,11632,11.38,72996.5,-1.91,-2.55,-2.59,0,*52
1508717030.03,11633,11.38,72992.3,-1.93,-2.67,-2.59,0,*50
1508717031.27,11634,11.38,72992.8,-1.93,-2.67,-2.59,0,*57
1508717032.51,11635,11.38,72998.0,-1.93,-2.59,-2.55,0,*57
1508717033.78,11636,11.38,72994.8,-1.91,-2.67,-2.55,0,*5B
1508717035.05,11637,11.38,72996.3,-1.91,-2.67,-2.67,0,*5B
1508717036.32,11638,11.38,72996.8,-1.91,-2.67,-2.59,0,*59
1508717037.59,11639,11.38,72992.5,-1.91,-2.67,-2.59,0,*58
1508717038.86,11640,11.38,72998.5,-1.91,-2.67,-2.59,0,*56
1508717040.1,11641,11.38,72996.0,-1.93,-2.67,-2.59,0,*55
1508717041.37,11642,11.38,72996.0,-1.91,-2.67,-2.55,0,*58
1508717042.61,11643,11.38,72992.3,-1.93,-2.67,-2.59,0,*57
1508717043.88,11644,11.38,72994.3,-1.91,-2.67,-2.59,0,*52
1508717045.15,11645,11.38,72998.0,-1.91,-2.59,-2.55,0,*52
1508717046.42,11646,11.38,72994.0,-1.91,-2.67,-2.59,0,*50
1508717047.66,11647,11.38,72994.0,-1.93,-2.67,-2.59,0,*53
1508717048.9,11648,11.38,72994.8,-1.93,-2.67,-2.67,0,*51
1508717050.14,11649,11.38,72994.8,-1.93,-2.67,-2.59,0,*5D
1508717051.41,11650,11.38,72996.0,-1.91,-2.67,-2.55,0,*5B
1508717052.68,11651,11.38,72992.5,-1.91,-2.71,-2.59,0,*51
1508717053.92,11652,11.38,72996.0,-1.93,-2.67,-2.59,0,*57
1508717055.17,11653,11.38,72996.0,-1.93,-2.67,-2.67,0,*5B
1508717056.42,11654,11.38,72994.0,-1.93,-2.71,-2.67,0,*5B
1508717057.66,11655,11.38,72996.3,-1.93,-2.67,-2.67,0,*5D
1508717058.93,11656,11.38,72996.5,-1.91,-2.67,-2.67,0,*5C
1508717060.2,11657,11.38,72998.5,-1.91,-2.67,-2.71,0,*5A
1508717061.44,11658,11.38,72994.5,-1.93,-2.67,-2.59,0,*5D
1508717062.69,11659,11.38,72994.0,-1.93,-2.67,-2.67,0,*51
1508717063.93,11660,11.38,72992.5,-1.93,-2.67,-2.59,0,*56
1508717065.17,11661,11.38,72998.5,-1.93,-2.67,-2.59,0,*57
1508717066.41,11662,11.38,72996.0,-1.93,-2.71,-2.59,0,*53
1508717067.65,11663,11.38,72996.8,-1.93,-2.67,-2.59,0,*55
1508717068.89,11664,11.38,73000.3,-1.93,-2.67,-2.59,0,*52
1508717070.16,11665,11.38,72998.0,-1.91,-2.67,-2.59,0,*51
1508717071.41,11666,11.38,72998.8,-1.93,-2.67,-2.55,0,*5C
1508717072.68,11667,11.38,72994.3,-1.91,-2.67,-2.59,0,*53
1508717073.91,11668,11.38,72994.5,-1.93,-2.59,-2.59,0,*53
1508717075.15,11669,11.38,72994.8,-1.93,-2.67,-2.59,0,*5F
1508717076.43,11670,11.38,72996.5,-1.91,-2.67,-2.67,0,*58
1508717077.67,11671,11.38,72996.5,-1.93,-2.67,-2.71,0,*5C
1508717078.91,11672,11.38,72998.3,-1.93,-2.67,-2.59,0,*55
1508717080.18,11673,11.38,72996.5,-1.91,-2.67,-2.55,0,*5A
1508717081.42,11674,11.38,72996.5,-1.93,-2.67,-2.59,0,*53
1508717082.67,11675,11.38,72998.0,-1.93,-2.67,-2.59,0,*52
1508717083.91,11676,11.38,72994.3,-1.93,-2.67,-2.59,0,*51
1508717085.15,11677,11.38,72996.8,-1.93,-2.67,-2.59,0,*50
1508717086.39,11678,11.38,72998.5,-1.93,-2.67,-2.67,0,*52
1508717087.63,11679,11.38,72998.5,-1.93,-2.59,-2.55,0,*5F
1508717088.88,11680,11.38,72998.5,-1.93,-2.59,-2.55,0,*59
1508717090.12,11681,11.38,72992.0,-1.93,-2.67,-2.67,0,*54
1508717091.36,11682,11.38,72996.3,-1.93,-2.67,-2.59,0,*5A
1508717092.61,11683,11.38,72992.8,-1.93,-2.59,-2.55,0,*5A
1508717093.85,11684,11.38,72998.8,-1.93,-2.67,-2.55,0,*50
1508717095.09,11685,11.38,72996.0,-1.93,-2.67,-2.55,0,*51
1508717096.34,11686,11.38,72994.5,-1.93,-2.67,-2.67,0,*53
1508717097.58,11687,11.38,72992.3,-1.93,-2.67,-2.59,0,*5F
1508717098.82,11688,11.38,72994.5,-1.93,-2.67,-2.59,0,*50
1508717100.06,11689,11.38,72992.5,-1.93,-2.71,-2.59,0,*56
1508717101.3,11690,11.38,72998.5,-1.93,-2.67,-2.59,0,*59
1508717102.55,11691,11.38,72996.0,-1.93,-2.59,-2.55,0,*59
1508717103.79,11692,11.38,72996.5,-1.93,-2.67,-2.55,0,*57
1508717105.03,11693,11.38,72994.0,-1.93,-2.67,-2.55,0,*56
1508717106.28,11694,11.38,72992.5,-1.93,-2.67,-2.59,0,*5D
1508717107.52,11695,11.38,72994.3,-1.93,-2.59,-2.55,0,*5D
1508717108.79,11696,11.38,72994.5,-1.91,-2.67,-2.59,0,*5D
1508717110.03,11697,11.38,72992.5,-1.93,-2.59,-2.59,0,*53
1508717111.27,11698,11.38,72994.8,-1.93,-2.59,-2.59,0,*5C
1508717112.51,11699,11.38,72992.8,-1.93,-2.59,-2.59,0,*5D
1508717113.75,11700,11.38,72994.8,-1.93,-2.71,-2.59,0,*56
1508717114.99,11701,11.38,72996.3,-1.93,-2.59,-2.59,0,*5D
1508717116.23,11702,11.38,72996.3,-1.93,-2.59,-2.55,0,*52
1508717117.47,11703,11.38,72994.8,-1.93,-2.59,-2.59,0,*5F
1508717118.71,11704,11.38,72994.8,-1.93,-2.59,-2.59,0,*58
1508717119.96,11705,11.38,72992.0,-1.93,-2.67,-2.55,0,*58
1508717121.2,11706,11.38,72992.5,-1.93,-2.59,-2.55,0,*56
1508717122.44,11707,11.38,72998.0,-1.93,-2.59,-2.55,0,*57
1508717123.69,11708,11.38,72996.5,-1.93,-2.67,-2.55,0,*55
1508717124.95,11709,11.38,72992.0,-1.91,-2.67,-2.59,0,*5A
1508717126.22,11710,11.38,72994.3,-1.91,-2.59,-2.55,0,*53
1508717127.47,11711,11.38,72992.3,-1.93,-2.59,-2.55,0,*50
1508717128.71,11712,11.38,72992.3,-1.93,-2.67,-2.59,0,*52
1508717129.95,11713,11.38,72994.5,-1.93,-2.71,-2.59,0,*54
1508717131.2,11714,11.38,72994.3,-1.93,-2.59,-2.71,0,*53
1508717132.44,11715,11.38,72994.8,-1.93,-2.67,-2.59,0,*55
1508717133.68,11716,11.38,72992.5,-1.93,-2.59,-2.59,0,*5B
1508717134.95,11717,11.38,72994.0,-1.95,-2.63,-2.63,0,*5C
1508717136.23,11718,11.38,72994.5,-1.95,-2.63,-2.63,0,*53
1508717137.51,11719,11.38,72996.3,-1.95,-2.71,-2.63,0,*51
1508717138.78,11720,11.38,72996.8,-1.95,-2.71,-2.63,0,*5B
1508717140.06,11721,11.38,72992.3,-1.95,-2.71,-2.63,0,*5A
1508717141.33,11722,11.38,72992.0,-1.95,-2.71,-2.63,0,*59
1508717142.6,11723,11.38,72990.5,-1.95,-2.71,-2.63,0,*58
1508717143.88,11724,11.38,72992.0,-1.95,-2.75,-2.63,0,*5B
1508717145.12,11725,11.38,72994.5,-1.93,-2.67,-2.59,0,*56
1508717146.36,11726,11.38,72992.0,-1.93,-2.59,-2.67,0,*55
1508717147.61,11727,11.38,72992.8,-1.93,-2.71,-2.59,0,*53
1508717148.85,11728,11.38,72994.5,-1.93,-2.67,-2.67,0,*56
1508717150.13,11729,11.38,72990.3,-1.95,-2.63,-2.71,0,*52
1508717151.37,11730,11.38,72990.8,-1.93,-2.67,-2.59,0,*52
1508717152.62,11731,11.38,72988.3,-1.93,-2.71,-2.67,0,*59
1508717153.86,11732,11.38,72990.8,-1.93,-2.71,-2.59,0,*57
1508717155.13,11733,11.38,72986.5,-1.95,-2.71,-2.71,0,*5A
1508717156.41,11734,11.38,72990.5,-1.95,-2.75,-2.71,0,*59
1508717157.68,11735,11.38,72992.3,-1.95,-2.71,-2.71,0,*5C
1508717158.96,11736,11.38,72992.0,-1.95,-2.71,-2.63,0,*5C
1508717160.23,11737,11.38,72992.0,-1.95,-2.71,-2.71,0,*5E
1508717161.51,11738,11.38,72992.0,-1.95,-2.71,-2.63,0,*52
1508717162.78,11739,11.38,72992.8,-1.95,-2.71,-2.63,0,*53
1508717164.06,11740,11.38,72990.5,-1.95,-2.71,-2.63,0,*5D
1508717165.33,11741,11.38,72992.0,-1.95,-2.75,-2.75,0,*5F
1508717166.6,11742,11.38,72992.8,-1.95,-2.75,-2.71,0,*58
1508717167.88,11743,11.38,72992.0,-1.95,-2.75,-2.71,0,*59
1508717169.12,11744,11.38,72990.5,-1.97,-2.75,-2.71,0,*5C
1508717170.4,11745,11.38,72990.8,-1.95,-2.71,-2.71,0,*5B
1508717171.67,11746,11.38,72990.8,-1.95,-2.75,-2.75,0,*58
1508717172.94,11747,11.38,72992.0,-1.95,-2.71,-2.71,0,*59
1508717174.22,11748,11.38,72994.3,-1.95,-2.71,-2.71,0,*56
1508717175.49,11749,11.38,72994.0,-1.95,-2.71,-2.75,0,*53
1508717176.74,11750,11.38,72994.5,-1.97,-2.71,-2.63,0,*5E
1508717178.01,11751,11.38,72994.3,-1.95,-2.71,-2.71,0,*5E
1508717179.29,11752,11.38,72992.8,-1.95,-2.75,-2.71,0,*59
1508717180.56,11753,11.38,72994.3,-1.95,-2.75,-2.75,0,*5C
1508717181.83,11754,11.38,72990.8,-1.95,-2.75,-2.71,0,*5F
1508717183.08,11755,11.38,72994.0,-1.97,-2.75,-2.71,0,*5C
1508717184.35,11756,11.38,72992.5,-1.95,-2.75,-2.71,0,*5D
1508717185.63,11757,11.38,72990.5,-1.95,-2.75,-2.71,0,*5C
1508717186.9,11758,11.38,72988.8,-1.95,-2.71,-2.71,0,*57
1508717188.17,11759,11.38,72990.8,-1.95,-2.75,-2.75,0,*56
1508717189.45,11760,11.38,72990.0,-1.95,-2.71,-2.71,0,*5C
1508717190.72,11761,11.38,72994.3,-1.95,-2.75,-2.71,0,*59
1508717191.97,11762,11.38,72992.0,-1.97,-2.71,-2.71,0,*5C
1508717193.24,11763,11.38,72996.0,-1.95,-2.71,-2.71,0,*5F
1508717194.49,11764,11.38,72994.0,-1.97,-2.71,-2.71,0,*5A
1508717195.73,11765,11.38,72992.8,-1.97,-2.71,-2.75,0,*5F
1508717196.97,11766,11.38,72992.8,-1.97,-2.75,-2.75,0,*58
1508717198.22,11767,11.38,72998.8,-1.97,-2.75,-2.71,0,*5D
1508717199.49,11768,11.38,72996.0,-1.95,-2.71,-2.71,0,*54
1508717200.77,11769,11.38,72992.8,-1.95,-2.75,-2.63,0,*52
1508717202.01,11770,11.38,72992.0,-1.97,-2.75,-2.63,0,*58
1508717203.29,11771,11.38,72994.3,-1.95,-2.75,-2.63,0,*5B
1508717204.53,11772,11.38,72992.0,-1.97,-2.71,-2.75,0,*59
1508717205.78,11773,11.38,72994.0,-1.97,-2.71,-2.71,0,*5C
1508717207.02,11774,11.38,72992.0,-1.97,-2.71,-2.71,0,*5B
1508717208.29,11775,11.38,72994.3,-1.95,-2.71,-2.75,0,*5C
1508717209.54,11776,11.38,72994.3,-1.97,-2.71,-2.71,0,*59
1508717210.78,11777,11.38,72992.3,-1.97,-2.75,-2.71,0,*5C
1508717212.03,11778,11.38,72994.0,-1.97,-2.75,-2.71,0,*53
1508717213.27,11779,11.38,72994.3,-1.97,-2.71,-2.71,0,*56
1508717214.52,11780,11.38,72994.8,-1.97,-2.75,-2.71,0,*54
1508717215.76,11781,11.38,72992.8,-1.97,-2.75,-2.63,0,*56
1508717217.04,11782,11.38,72994.5,-1.95,-2.75,-2.71,0,*54
1508717218.28,11783,11.38,72992.0,-1.97,-2.75,-2.71,0,*57
1508717219.53,11784,11.38,72992.3,-1.97,-2.71,-2.71,0,*54
1508717220.8,11785,11.38,72992.3,-1.95,-2.75,-2.75,0,*57
1508717222.07,11786,11.38,72994.8,-1.95,-2.75,-2.71,0,*50
1508717223.32,11787,11.38,72992.5,-1.97,-2.75,-2.71,0,*53
1508717224.56,11788,11.38,72992.8,-1.97,-2.75,-2.71,0,*5C
1508717225.81,11789,11.38,72990.3,-1.97,-2.71,-2.75,0,*5D
1508717227.05,11790,11.38,72994.8,-1.97,-2.75,-2.75,0,*51
1508717228.3,11791,11.38,72994.0,-1.97,-2.71,-2.71,0,*50
1508717229.54,11792,11.38,72992.5,-1.97,-2.71,-2.75,0,*57
1508717230.79,11793,11.38,72988.3,-1.97,-2.75,-2.71,0,*56
1508717232.03,11794,11.38,72992.3,-1.97,-2.71,-2.71,0,*55
1508717233.27,11795,11.38,72998.3,-1.97,-2.75,-2.71,0,*50
1508717234.52,11796,11.31,72988.8,-1.97,-2.75,-2.75,0,*57
1508717235.76,11797,11.31,72990.8,-1.97,-2.71,-2.71,0,*56
1508717237.01,11798,11.38,72990.3,-1.97,-2.71,-2.75,0,*5D
1508717238.25,11799,11.38,72994.0,-1.99,-2.75,-2.79,0,*5A
1508717239.5,11800,11.38,72994.3,-1.99,-2.79,-2.75,0,*55
1508717240.75,11801,11.38,72994.3,-1.99,-2.79,-2.75,0,*54
1508717242.02,11802,11.38,72992.0,-1.99,-2.75,-2.75,0,*5B
1508717243.27,11803,11.38,72994.8,-1.99,-2.79,-2.75,0,*56
1508717244.51,11804,11.38,72994.5,-1.97,-2.75,-2.71,0,*57
1508717245.76,11805,11.38,72994.0,-1.97,-2.75,-2.71,0,*56
1508717247.0,11806,11.38,72996.3,-1.97,-2.71,-2.75,0,*55
1508717248.25,11807,11.31,72992.5,-1.97,-2.71,-2.71,0,*50
1508717249.49,11808,11.38,72992.8,-1.99,-2.75,-2.79,0,*5D
1508717250.73,11809,11.38,72994.3,-1.99,-2.75,-2.79,0,*5C
1508717251.98,11810,11.31,72992.5,-1.97,-2.71,-2.71,0,*56
1508717253.22,11811,11.38,72994.5,-1.97,-2.71,-2.71,0,*57
1508717254.47,11812,11.31,72988.8,-1.99,-2.75,-2.79,0,*56
1508717255.71,11813,11.38,72992.8,-1.99,-2.75,-2.79,0,*57
1508717256.98,11814,11.31,72990.0,-1.99,-2.75,-2.75,0,*5C
1508717258.23,11815,11.38,72992.0,-1.99,-2.79,-2.67,0,*52
1508717259.45,11816,11.31,72988.8,-1.99,-2.79,-2.79,0,*5E
1508717260.7,11817,11.38,72992.8,-1.99,-2.79,-2.75,0,*53
1508717261.91,11818,11.31,72990.8,-1.99,-2.79,-2.79,0,*50
1508717263.16,11819,11.38,72992.5,-1.99,-2.75,-2.79,0,*5D
1508717264.4,11820,11.38,72990.3,-1.99,-2.79,-2.75,0,*57
1508717265.65,11821,11.31,72988.0,-2.01,-2.75,-2.75,0,*58
1508717266.87,11822,11.31,72988.3,-2.01,-2.75,-2.79,0,*57
1508717268.11,11823,11.31,72988.0,-1.99,-2.75,-2.79,0,*54
1508717269.36,11824,11.38,72992.0,-1.99,-2.79,-2.75,0,*53
1508717270.58,11825,11.31,72990.8,-2.01,-2.79,-2.75,0,*50
1508717271.79,11826,11.31,72990.0,-1.99,-2.79,-2.79,0,*5D
1508717273.04,11827,11.31,72988.8,-1.99,-2.79,-2.75,0,*50
1508717274.28,11828,11.38,72992.8,-1.99,-2.75,-2.79,0,*5F
1508717275.53,11829,11.38,72992.8,-1.99,-2.79,-2.67,0,*5D
1508717276.78,11830,11.38,72994.3,-1.99,-2.79,-2.75,0,*56
1508717278.06,11831,11.38,72994.5,-1.99,-2.75,-2.67,0,*58
1508717279.3,11832,11.38,72992.8,-1.99,-2.79,-2.67,0,*57
1508717280.58,11833,11.38,72998.5,-1.99,-2.75,-2.75,0,*59
1508717281.83,11834,11.38,72994.0,-1.99,-2.79,-2.75,0,*52
1508717283.07,11835,11.38,72992.3,-1.99,-2.79,-2.75,0,*53
1508717284.35,11836,11.31,72990.0,-1.99,-2.75,-2.75,0,*5C
1508717285.62,11837,11.31,72990.5,-1.99,-2.75,-2.75,0,*5D
1508717286.9,11838,11.31,72992.0,-1.99,-2.75,-2.75,0,*52
1508717288.14,11839,11.38,72992.8,-1.99,-2.79,-2.75,0,*5F
1508717289.39,11840,11.38,72994.3,-1.99,-2.79,-2.67,0,*52
1508717290.67,11841,11.31,72990.3,-1.99,-2.75,-2.75,0,*5C
1508717291.86,11842,11.38,72992.8,-2.01,-2.79,-2.79,0,*5D
1508717293.08,11843,11.38,72994.8,-2.01,-2.79,-2.75,0,*50
1508717294.3,11844,11.31,72992.8,-2.01,-2.79,-2.75,0,*57
1508717295.55,11845,11.38,72992.0,-1.99,-2.79,-2.75,0,*54
1508717296.79,11846,11.38,72992.0,-1.99,-2.75,-2.79,0,*57
1508717298.06,11847,11.31,72992.0,-1.99,-2.75,-2.75,0,*5A
1508717299.31,11848,11.38,72992.8,-1.99,-2.75,-2.79,0,*59
1508717300.55,11849,11.38,72992.3,-1.99,-2.79,-2.75,0,*58
1508717301.83,11850,11.31,72988.5,-1.99,-2.75,-2.75,0,*5C
1508717303.1,11851,11.31,72988.8,-1.99,-2.75,-2.75,0,*5D
1508717304.29,11852,11.38,72994.8,-2.01,-2.79,-2.79,0,*5C
1508717305.54,11853,11.38,72992.3,-1.99,-2.79,-2.75,0,*53
1508717306.76,11854,11.31,72988.8,-2.01,-2.79,-2.75,0,*56
1508717307.95,11855,11.31,72988.8,-2.01,-2.79,-2.79,0,*5B
1508717309.2,11856,11.31,72988.3,-1.99,-2.79,-2.75,0,*56
1508717310.44,11857,11.31,72990.8,-2.01,-2.75,-2.75,0,*59
1508717311.69,11858,11.38,72994.0,-2.01,-2.75,-2.75,0,*56
1508717312.94,11859,11.38,72992.0,-2.01,-2.75,-2.75,0,*57
1508717314.18,11860,11.31,72990.0,-2.01,-2.75,-2.67,0,*5E
1508717315.43,11861,11.31,72994.8,-1.99,-2.79,-2.75,0,*52
1508717316.68,11862,11.38,72992.3,-2.01,-2.75,-2.75,0,*5F
1508717317.95,11863,11.38,72994.0,-1.99,-2.75,-2.75,0,*5C
1508717319.2,11864,11.31,72992.3,-2.01,-2.75,-2.67,0,*5A